www.pogodaiklimat.ru

Погода и климат >> Архив погоды >> Россия >> Красноярский край >> Снежногорск


ПОГОДА в Снежногорске

  • Прогноз погоды в Снежногорске
  • Монитор погоды в Снежногорске

АРХИВ ПОГОДЫ в Снежногорске

Время (UTC), дата Ветер
(напр.,м/с)
 
Видим.   Явления Облачность Т
(С)
Тd
(С)
f
(%)
Тe
(С)
Тes
(С)
Комфортность P
(гПа)
Po
(гПа)
Тmin
(С)
Tmax
(С)
R
(мм)
R24
(мм)
S
(см)
12 15.01 ЮВ 3 4000 м слаб. снег 10/10 600 м
[Cu med, cong]
-12.1 -14.8 80 -18 -18 999.2 987.0 -12.1 7
15 15.01 ЮВ 3 4000 м слаб. снег 10/10 600 м
[Cu med, cong]
-11.5 -14.3 80 -17 -17 996.9 984.7
18 15.01 Ю 3 4000 м слаб. снег 10/0
[Ac As]
-11.8 -14.5 80 -18 -18 995.9 983.7
21 15.01 Ю 3 4000 м слаб. снег 10/0
[Ac As]
-11.5 -14.3 80 -17 -17 995.5 983.3
00 16.01 З 5 4000 м слаб. снег 10/0
[Ac As]
-11.5 -14.3 80 -19 -19 997.6 985.4 -12.0 7 10
03 16.01 З 5 10 км слаб. снег 10/0
[Ac As]
-14.1 -17.6 75 -23 -23 1000.9 988.6
06 16.01 З 3 10 км слаб. снег 10/0
[Ac As]
-14.6 -18.1 75 -21 -21 1003.9 991.6
09 16.01 ЮЗ 1 10 км слаб. снег 10/0
[As op]
-14.9 -18.3 75 -17 -17 1005.8 993.5
12 16.01 ЮЗ 2 10 км слаб. снег 10/0
[As op]
-16.0 -19.4 75 -21 -21 1007.2 994.7 -14.0 0.4
15 16.01 ЮЗ 1 10 км слаб. снег 10/0
[As op]
-16.6 -20.0 75 -19 -19 1007.9 995.4
18 16.01 штиль 0 10 км слаб. снег 10/0 2000 м
[Ac As]
-17.0 -20.4 75 -17 -17 1008.3 995.8
21 16.01 штиль 0 10 км слаб. снег 10/0
[Ac As]
-16.6 -20.0 75 -17 -17 1009.4 996.9
00 17.01 штиль 0 10 км {снег} 10/0 2000 м
[Ac As]
-19.2 -22.5 75 -19 -19 1011.1 998.4 -20.1 0.4 109
03 17.01 Ю 1 10 км 4/0
[Ci fib]
-19.7 -23.0 75 -23 -23 1012.9 1000.2 -21.0
06 17.01 Ю 1 20 км 10/0 2000 м
[Ac und]
-21.2 -24.4 75 -24 -24 1015.1 1002.3
09 17.01 Ю 2 20 км 6/0
[Ac trans]
-23.1 -26.3 75 -29 -29 1017.1 1004.1
12 17.01 Ю 3 10 км 10/0 2000 м
[Ac trans Cs]
-23.6 -27.6 70 -32 -32 опасность
обморожения
1019.1 1006.1 -19.2
15 17.01 Ю 3 10 км 10/0
[Cs]
-23.9 -27.8 70 -32 -32 опасность
обморожения
1019.5 1006.5
18 17.01 В 2 10 км слаб. снег 10/0
[Cs]
-23.4 -27.4 70 -30 -30 1018.3 1005.3
21 17.01 В 3 4000 м слаб. снег 10/0
[As op]
-22.9 -26.1 75 -31 -31 опасность
обморожения
1014.9 1002.1
00 18.01 Ю 5
{10}
4000 м слаб. снег {метель} 10/0
[As op]
-17.8 -21.1 75 -27 -27 1009.8 997.2 -24.5 5 111
03 18.01 Ю 5
{10}
4000 м слаб. снег {метель} 10/0
[As op]
-17.8 -21.1 75 -27 -27 1009.8 997.2 -24.5 5
06 18.01 Ю 4
{11}
20 км позёмок {снег} 10/0
[Ac und]
-10.7 -13.5 80 -18 -18 1004.0 991.9
09 18.01 Ю 6-10
{12}
10 км слаб. снег {метель} 10/0
[As op]
-10.3 -13.1 80 -19 -19 1001.9 989.8
12 18.01 Ю 6-12
{14}
4000 м слаб. снег {метель} 10/0
[As op]
-10.5 -13.3 80 -19 -19 1000.9 988.8 -10.3 2
15 18.01 Ю 6-10
{14}
4000 м слаб. снег {метель} 10/0
[As op]
-10.4 -13.2 80 -19 -19 1000.4 988.3
18 18.01 ЮЗ 5-10
{13}
10 км слаб. снег {метель} 10/0 2000 м
[As op]
-10.2 -13.0 80 -18 -18 1001.0 988.9
21 18.01 ЮЗ 5
{12}
10 км слаб. снег {метель} 10/0
[As op]
-9.9 -12.5 81 -18 -18 1000.6 988.5
00 19.01 ЮЗ 4
{12}
10 км слаб. снег {метель} 10/0 2000 м
[As op]
-10.2 -13.0 80 -17 -17 1000.0 987.9 -10.6 2 111
03 19.01 Ю 4-10
{12}
10 км слаб. снег {метель} 10/0
[As op]
-10.5 -13.3 80 -17 -17 998.7 986.6
06 19.01 Ю 4
{11}
20 км слаб. снег {метель} 10/0 2000 м
[As op]
-10.6 -13.4 80 -18 -18 996.8 984.7
09 19.01 ЮЗ 4
{10}
10 км слаб. снег {метель} 10/0
[Ac As]
-11.0 -13.8 80 -18 -18 995.3 983.2
12 19.01 ЮЗ 3 10 км слаб. снег {метель} 10/0
[Ac trans]
-11.0 -13.8 80 -17 -17 994.0 982.0 -10.2 3
15 19.01 ЮЗ 3 10 км слаб. снег 10/0
[As op]
-11.5 -14.3 80 -17 -17 993.9 981.8
18 19.01 ЮЗ 2 10 км слаб. снег 10/0
[Ac As]
-12.5 -15.2 80 -17 -17 994.4 982.3
21 19.01 З 2 10 км слаб. снег 10/0
[Ac As]
-13.0 -15.7 80 -18 -18 996.2 984.0
00 20.01 ЮЗ 2 10 км слаб. снег 10/0 2000 м
[Ac As]
-14.0 -17.5 75 -19 -19 998.7 986.4 -14.6 0.9 113
03 20.01 З 3 10 км {снег, метель} 10/0
[Ac trans Cs]
-17.2 -21.4 70 -24 -24 1000.2 987.7 -17.2
06 20.01 ЮЗ 2 20 км {снег, метель} 10/0 2000 м
[Ac lent Cs]
-20.3 -24.4 70 -26 -26 1001.7 989.1
09 20.01 З 2 20 км 10/0
[Ac und]
-19.3 -22.6 75 -25 -25 1003.1 990.5
12 20.01 З 2 10 км 10/0
[Ac und]
-20.1 -23.4 75 -26 -26 1005.9 993.2 -14.0 0.0
15 20.01 СЗ 2 10 км 10/0
[Ac und]
-19.2 -23.3 70 -25 -25 1008.4 995.7
18 20.01 З 2 10 км 10/0
[Ac und]
-21.4 -25.4 70 -27 -27 1011.1 998.3
21 20.01 З 1 10 км 10/0
[Ac und]
-23.6 -27.6 70 -27 -27 1014.2 1001.2
00 21.01 ЮЗ 1 10 км 10/0
[Ac und]
-23.8 -27.7 70 -27 -27 1016.9 1003.9 -24.2 114
03 21.01 Ю 2 10 км 10/0
[Ac trans]
-30.8 -34.5 70 -38 -38 опасность
обморожения
1020.3 1007.0 -30.8
06 21.01 Ю 3 20 км 3/0
[Ac lent]
-30.0 -33.7 70 -40 -40 опасность
обморожения
1022.1 1008.7
09 21.01 Ю 3 20 км 10/0
[Ac und Ci sp]
-30.7 -34.3 71 -40 -40 опасность
обморожения
1024.4 1011.0
12 21.01 ЮВ 1 10 км 10/0 2000 м
[Ac und]
-29.1 -32.9 70 -33 -33 опасность
обморожения
1025.3 1011.9 -23.8
15 21.01 В 4 10 км 10/0
[Cs]
-28.2 -32.0 70 -39 -39 опасность
обморожения
1023.9 1010.6
18 21.01 СВ 4 10 км 10/0
[Cs]
-26.9 -30.7 70 -37 -37 опасность
обморожения
1022.3 1009.1
21 21.01 СВ 4
{10}
10 км позёмок 10/0
[Cs]
-25.4 -29.2 70 -36 -36 опасность
обморожения
1021.0 1007.8
00 22.01 В 5-10
{13}
10 км позёмок 10/0 2000 м
[Ac und Cs]
-24.2 -28.1 70 -35 -35 опасность
обморожения
1018.3 1005.3 -29.3 111
03 22.01 СВ 4
{12}
10 км позёмок 10/0
[Ac und]
-22.4 -26.3 70 -32 -32 опасность
обморожения
1016.1 1003.2
06 22.01 В 4
{11}
20 км позёмок 10/0
[Ac und]
-19.2 -23.3 70 -28 -28 1014.0 1001.3

 

Местоположение метеостанции Снежногорск (Красноярский край, Россия): широта 68.10 долгота 87.77 высота над уровнем моря 94 м.

В архиве по умолчанию представлена погода в Снежногорске за последнюю неделю. Архивные данные за месяц целиком и за предыдущие месяцы, начиная с января 2011 года, Вы можете получить, выбрав интересующий диапазон дат из раскрывающегося списка и нажав кнопку "Ввод!".


*Определитесь, кто Вы:
робот инопланетянин человек

Внимание! Время в таблицах - всемирное. Для получения местного времени необходимо прибавить поправку, которая равна 7 ч.

Смотрите также архив погоды в соседних городах и на ближайших метеорологических станциях:

Погода в Горбиачине (Красноярский край, Россия) (69 км)
Погода в Игарке (Красноярский край, Россия) (86 км)
Погода в Потапово (Красноярский край, Россия) (89 км)
Погода в Светлогорске (Красноярский край, Россия) (131 км)
Погода в Норильске (Красноярский край, Россия) (138 км)
Погода в Курейке (Красноярский край, Россия) (183 км)
Погода в Советской Речке (Красноярский край, Россия) (221 км)
Погода в Туруханске (Красноярский край, Россия) (258 км)
Погода в Агате (Эвенкия, Россия) (278 км)
Погода в Карауле (Красноярский край, Россия) (286 км)

Пояснения к столбцам:

Ветер - указаны скорость ветра в м/с - средняя за 10 мин, порывы в срок и между сроками (в фигурных скобках) и направление, откуда дует ветер: С - северный, СВ - северо-восточный, В - восточный, ЮВ - юго-восточный, Ю - южный, ЮЗ - юго-западный, З - западный, СЗ - северо-западный.
Видимость - горизонтальная дальность видимости в метрах или километрах. При видимости от 1 до 10 км при отсутствии осадков обычно наблюдается дымка, при ухудшении видимости до 1 км и менее - туман. В сухую погоду видимость может ухудшаться дымом, пылью или мглою.
Явления - указаны атмосферные явления, наблюдавшиеся в срок или в последний час перед сроком; фигурными скобками обозначены явления, наблюдавшиеся между сроками (за 1-3 часа до срока); квадратными скобками обозначены град или гололедные отложения с указанием их диаметра в мм.
Облачность - указаны через наклонную черту общая и нижняя облачность в баллах и высота нижней границы облаков в метрах; квадратными скобками обозначены формы облаков: Ci - перистые, Cs - перисто-слоистые, Cc - перисто-кучевые, Ac - высококучевые, As - высокослоистые, Sc - слоисто-кучевые, Ns - слоисто-дождевые, Cu - кучевые, Cb - кучево-дождевые. Подробнее классификацию облаков см. в Атласе облаков (PDF).
T - Температура воздуха - температура, измеренная на высоте 2 м над землей.
Td - Температура точки росы - температура, при понижении до которой содержащийся в воздухе водяной пар достигнет насыщения.
f - Относительная влажность воздуха - влажноcть воздуха, измеренная на высоте 2 м над землей.
Te - Эффективная температура - температура, которую ощущает одетый по сезону человек в тени. Характеристика душности погоды. При расчете учитывается влияние влажности воздуха и скорости ветра на теплоощущения человека.
Tes - Эффективная температура на солнце - температура, которую ощущает человек, с поправкой на солнечный нагрев. Характеристика знойности погоды. Зависит от высоты солнца над горизонтом, облачности и скорости ветра. Ночью, в пасмурную погоду, а также при ветре 12 м/с и более поправка равна нулю.
P - Атмосферное давление - приведенное к уровню моря атмосферное давление.
Po - Атмосферное давление - измеренное на уровне метеостанции атмосферное давление.
Tmin - Минимальная температура - минимум температуры воздуха на высоте 2 м над землей.
Tmax - Максимальная температура - максимум температуры воздуха на высоте 2 м над землей.
R - Количество осадков - Количество выпавших осадков за период времени, мм. При наведении курсора мыши на число - период времени, за который выпало указанное количество осадков.
R24 - Количество осадков - Количество выпавших осадков за 24 часа, мм.
S - Снежный покров - Высота снежного покрова, см. При наведении курсора мыши на число - состояние снежного покрова и степень покрытия местности в баллах.